GSAT0226 (GALILEO 31)

Last updated on Mon Jun 22 2026 00:02:55 GMT+0000 (Coordinated Universal Time)

1 61183U 24167B 26172.32163679 .00000029 00000+0 00000+0 0 9993 2 61183 55.1825 221.2072 0003001 231.0582 206.3880 1.70474325 10920
UTC large
Height (km)
Speed (km/s)
/
Latitude / Longitude
Inclination (degrees)
Orbital Period (minutes)
Azimuth
Elevation
Range (km)
Doppler Factor

Next 0 passes for location: London (51.5072 / 0.1276)

No passes found over London.
GSAT0226 (GALILEO 31)